Time,TemperatureF,DewpointF,PressureIn,WindDirection,WindDirectionDegrees,WindSpeedMPH,WindSpeedGustMPH,Humidity,HourlyPrecipIn,Conditions,Clouds,dailyrainin,SoftwareType,DateUTC
2013-10-25 00:04:00,46.0,-99.9,29.86,NW,307,7.0,-999.0,-999,-99.99,,,-99.99,,2013-10-25 04:04:00,
2013-10-25 00:24:00,46.0,-99.9,29.87,NW,320,10.0,-999.0,-999,-99.99,,,-99.99,,2013-10-25 04:24:00,
2013-10-25 00:34:00,46.0,-99.9,29.87,NW,320,10.0,-999.0,-999,-99.99,,,-99.99,,2013-10-25 04:34:00,
2013-10-25 00:54:00,47.0,-99.9,29.88,NNW,336,8.0,-999.0,-999,-99.99,,,-99.99,,2013-10-25 04:54:00,
2013-10-25 01:03:00,47.0,-99.9,29.88,NNW,336,8.0,-999.0,-999,-99.99,,,-99.99,,2013-10-25 05:03:00,
2013-10-25 01:22:00,48.0,-99.9,29.88,NNW,332,11.0,-999.0,-999,-99.99,,,-99.99,,2013-10-25 05:22:00,
2013-10-25 01:32:00,48.0,-99.9,29.88,NNW,332,11.0,-999.0,-999,-99.99,,,-99.99,,2013-10-25 05:32:00,
2013-10-25 01:42:00,48.0,-99.9,29.88,NNW,332,11.0,-999.0,-999,-99.99,,,-99.99,,2013-10-25 05:42:00,
2013-10-25 01:51:00,48.0,-99.9,29.89,NNW,333,12.0,-999.0,-999,-99.99,,,-99.99,,2013-10-25 05:51:00,
2013-10-25 02:01:00,48.0,-99.9,29.89,NNW,333,12.0,-999.0,-999,-99.99,,,-99.99,,2013-10-25 06:01:00,
2013-10-25 02:11:00,48.0,-99.9,29.89,NNW,333,12.0,-999.0,-999,-99.99,,,-99.99,,2013-10-25 06:11:00,
2013-10-25 02:21:00,47.0,-99.9,29.89,NNW,333,12.0,-999.0,-999,-99.99,,,-99.99,,2013-10-25 06:21:00,
2013-10-25 02:31:00,47.0,-99.9,29.89,NNW,333,12.0,-999.0,-999,-99.99,,,-99.99,,2013-10-25 06:31:00,
2013-10-25 02:51:00,47.0,-99.9,29.89,NNW,345,11.0,-999.0,-999,-99.99,,,-99.99,,2013-10-25 06:51:00,
2013-10-25 03:01:00,47.0,-99.9,29.89,NNW,345,11.0,-999.0,-999,-99.99,,,-99.99,,2013-10-25 07:01:00,
2013-10-25 03:21:00,47.0,-99.9,29.89,NNW,334,10.0,-999.0,-999,-99.99,,,-99.99,,2013-10-25 07:21:00,
2013-10-25 03:31:00,47.0,-99.9,29.89,NNW,334,10.0,-999.0,-999,-99.99,,,-99.99,,2013-10-25 07:31:00,
2013-10-25 03:51:00,46.0,-99.9,29.89,NNW,345,12.0,-999.0,-999,-99.99,,,-99.99,,2013-10-25 07:51:00,
2013-10-25 04:01:00,46.0,-99.9,29.89,NNW,345,12.0,-999.0,-999,-99.99,,,-99.99,,2013-10-25 08:01:00,
2013-10-25 04:11:00,46.0,-99.9,29.89,NNW,345,12.0,-999.0,-999,-99.99,,,-99.99,,2013-10-25 08:11:00,
2013-10-25 04:21:00,46.0,-99.9,29.90,North,351,10.0,-999.0,-999,-99.99,,,-99.99,,2013-10-25 08:21:00,
2013-10-25 04:31:00,46.0,-99.9,29.90,North,351,10.0,-999.0,-999,-99.99,,,-99.99,,2013-10-25 08:31:00,
2013-10-25 04:51:00,45.0,-99.9,29.91,NNW,343,11.0,-999.0,-999,-99.99,,,-99.99,,2013-10-25 08:51:00,
2013-10-25 05:01:00,45.0,-99.9,29.91,NNW,343,11.0,-999.0,-999,-99.99,,,-99.99,,2013-10-25 09:01:00,
2013-10-25 05:21:00,45.0,-99.9,29.92,NNW,330,11.0,-999.0,-999,-99.99,,,-99.99,,2013-10-25 09:21:00,
2013-10-25 05:32:00,45.0,-99.9,29.92,NNW,330,11.0,-999.0,-999,-99.99,,,-99.99,,2013-10-25 09:32:00,
2013-10-25 05:52:00,44.0,-99.9,29.94,NW,320,6.0,-999.0,-999,-99.99,,,-99.99,,2013-10-25 09:52:00,
2013-10-25 06:01:00,44.0,-99.9,29.94,NW,320,6.0,-999.0,-999,-99.99,,,-99.99,,2013-10-25 10:01:00,
2013-10-25 06:11:00,44.0,-99.9,29.94,NW,320,6.0,-999.0,-999,-99.99,,,-99.99,,2013-10-25 10:11:00,
2013-10-25 06:22:00,43.0,-99.9,29.94,NW,304,4.0,-999.0,-999,-99.99,,,-99.99,,2013-10-25 10:22:00,
2013-10-25 06:32:00,43.0,-99.9,29.94,NW,304,4.0,-999.0,-999,-99.99,,,-99.99,,2013-10-25 10:32:00,
2013-10-25 06:41:00,43.0,-99.9,29.94,NW,304,4.0,-999.0,-999,-99.99,,,-99.99,,2013-10-25 10:41:00,
2013-10-25 06:52:00,43.0,-99.9,29.95,WNW,294,5.0,-999.0,-999,-99.99,,,-99.99,,2013-10-25 10:52:00,
2013-10-25 07:02:00,43.0,-99.9,29.95,WNW,294,5.0,-999.0,-999,-99.99,,,-99.99,,2013-10-25 11:02:00,
2013-10-25 07:21:00,43.0,-99.9,29.96,NNW,335,7.0,-999.0,-999,-99.99,,,-99.99,,2013-10-25 11:21:00,
2013-10-25 07:32:00,43.0,-99.9,29.96,NNW,335,7.0,-999.0,-999,-99.99,,,-99.99,,2013-10-25 11:32:00,
2013-10-25 07:51:00,43.0,-99.9,29.97,NW,321,7.0,-999.0,-999,-99.99,,,-99.99,,2013-10-25 11:51:00,
2013-10-25 08:01:00,43.0,-99.9,29.97,NW,321,7.0,-999.0,-999,-99.99,,,-99.99,,2013-10-25 12:01:00,
2013-10-25 08:21:00,44.0,-99.9,29.99,NNW,344,8.0,-999.0,-999,-99.99,,,-99.99,,2013-10-25 12:21:00,
2013-10-25 08:31:00,44.0,-99.9,29.99,NNW,344,8.0,-999.0,-999,-99.99,,,-99.99,,2013-10-25 12:31:00,
2013-10-25 09:21:00,46.0,-99.9,30.00,NNW,332,10.0,-999.0,-999,-99.99,,,-99.99,,2013-10-25 13:21:00,
2013-10-25 09:32:00,46.0,-99.9,30.00,NNW,332,10.0,-999.0,-999,-99.99,,,-99.99,,2013-10-25 13:32:00,
2013-10-25 09:52:00,47.0,-99.9,30.00,NNW,340,11.0,-999.0,-999,-99.99,,,-99.99,,2013-10-25 13:52:00,
2013-10-25 10:02:00,47.0,-99.9,30.00,NNW,340,11.0,-999.0,-999,-99.99,,,-99.99,,2013-10-25 14:02:00,
2013-10-25 10:22:00,48.0,-99.9,30.01,NNW,329,14.0,-999.0,-999,-99.99,,,-99.99,,2013-10-25 14:22:00,
2013-10-25 10:32:00,48.0,-99.9,30.01,NNW,329,14.0,-999.0,-999,-99.99,,,-99.99,,2013-10-25 14:32:00,
2013-10-25 10:42:00,48.0,-99.9,30.01,NNW,329,14.0,-999.0,-999,-99.99,,,-99.99,,2013-10-25 14:42:00,
2013-10-25 10:52:00,49.0,-99.9,30.00,NNW,337,15.0,-999.0,-999,-99.99,,,-99.99,,2013-10-25 14:52:00,
2013-10-25 11:01:00,49.0,-99.9,30.00,NNW,337,15.0,-999.0,-999,-99.99,,,-99.99,,2013-10-25 15:01:00,
2013-10-25 11:11:00,49.0,-99.9,30.00,NNW,337,15.0,-999.0,-999,-99.99,,,-99.99,,2013-10-25 15:11:00,
2013-10-25 11:22:00,50.0,-99.9,29.99,NNW,339,7.0,-999.0,-999,-99.99,,,-99.99,,2013-10-25 15:22:00,
2013-10-25 11:33:00,50.0,-99.9,29.99,NNW,339,7.0,-999.0,-999,-99.99,,,-99.99,,2013-10-25 15:33:00,
2013-10-25 11:53:00,50.0,-99.9,29.99,NNW,329,10.0,-999.0,-999,-99.99,,,-99.99,,2013-10-25 15:53:00,
2013-10-25 12:03:00,50.0,-99.9,29.99,NNW,329,10.0,-999.0,-999,-99.99,,,-99.99,,2013-10-25 16:03:00,
2013-10-25 12:23:00,51.0,-99.9,29.98,NNW,327,9.0,-999.0,-999,-99.99,,,-99.99,,2013-10-25 16:23:00,
2013-10-25 12:33:00,51.0,-99.9,29.98,NNW,327,9.0,-999.0,-999,-99.99,,,-99.99,,2013-10-25 16:33:00,
2013-10-25 12:43:00,51.0,-99.9,29.98,NNW,327,9.0,-999.0,-999,-99.99,,,-99.99,,2013-10-25 16:43:00,
2013-10-25 12:53:00,51.0,-99.9,29.97,North,356,6.0,-999.0,-999,-99.99,,,-99.99,,2013-10-25 16:53:00,
2013-10-25 13:03:00,51.0,-99.9,29.97,North,356,6.0,-999.0,-999,-99.99,,,-99.99,,2013-10-25 17:03:00,
2013-10-25 13:13:00,51.0,-99.9,29.97,North,356,6.0,-999.0,-999,-99.99,,,-99.99,,2013-10-25 17:13:00,
2013-10-25 13:23:00,51.0,-99.9,29.97,North,4,9.0,-999.0,-999,-99.99,,,-99.99,,2013-10-25 17:23:00,
2013-10-25 13:33:00,51.0,-99.9,29.97,North,4,9.0,-999.0,-999,-99.99,,,-99.99,,2013-10-25 17:33:00,
2013-10-25 13:43:00,51.0,-99.9,29.97,North,4,9.0,-999.0,-999,-99.99,,,-99.99,,2013-10-25 17:43:00,
2013-10-25 13:52:00,51.0,-99.9,29.96,NNW,348,11.0,-999.0,-999,-99.99,,,-99.99,,2013-10-25 17:52:00,
2013-10-25 14:02:00,51.0,-99.9,29.96,NNW,348,11.0,-999.0,-999,-99.99,,,-99.99,,2013-10-25 18:02:00,
2013-10-25 14:22:00,52.0,-99.9,29.97,North,359,17.0,-999.0,-999,-99.99,,,-99.99,,2013-10-25 18:22:00,
2013-10-25 14:32:00,52.0,-99.9,29.97,North,359,17.0,-999.0,-999,-99.99,,,-99.99,,2013-10-25 18:32:00,
2013-10-25 14:52:00,50.0,-99.9,29.97,North,349,14.0,-999.0,-999,-99.99,,,-99.99,,2013-10-25 18:52:00,
2013-10-25 15:02:00,50.0,-99.9,29.97,North,349,14.0,-999.0,-999,-99.99,,,-99.99,,2013-10-25 19:02:00,
2013-10-25 15:22:00,50.0,-99.9,29.98,NW,315,11.0,-999.0,-999,-99.99,,,-99.99,,2013-10-25 19:22:00,
2013-10-25 15:32:00,50.0,-99.9,29.98,NW,315,11.0,-999.0,-999,-99.99,,,-99.99,,2013-10-25 19:32:00,
2013-10-25 15:52:00,51.0,-99.9,29.99,NNW,343,19.0,-999.0,-999,-99.99,,,-99.99,,2013-10-25 19:52:00,
2013-10-25 16:02:00,51.0,-99.9,29.99,NNW,343,19.0,-999.0,-999,-99.99,,,-99.99,,2013-10-25 20:02:00,
2013-10-25 16:12:00,51.0,-99.9,29.99,NNW,343,19.0,-999.0,-999,-99.99,,,-99.99,,2013-10-25 20:12:00,
2013-10-25 16:22:00,51.0,-99.9,29.99,NNW,338,12.0,-999.0,-999,-99.99,,,-99.99,,2013-10-25 20:22:00,
2013-10-25 16:32:00,51.0,-99.9,29.99,NNW,338,12.0,-999.0,-999,-99.99,,,-99.99,,2013-10-25 20:32:00,
2013-10-25 16:52:00,52.0,-99.9,29.99,NW,319,11.0,-999.0,-999,-99.99,,,-99.99,,2013-10-25 20:52:00,
2013-10-25 17:02:00,52.0,-99.9,29.99,NW,319,11.0,-999.0,-999,-99.99,,,-99.99,,2013-10-25 21:02:00,
2013-10-25 17:22:00,51.0,-99.9,30.00,North,353,15.0,-999.0,-999,-99.99,,,-99.99,,2013-10-25 21:22:00,
2013-10-25 17:34:00,51.0,-99.9,30.00,North,353,15.0,-999.0,-999,-99.99,,,-99.99,,2013-10-25 21:34:00,
2013-10-25 17:43:00,51.0,-99.9,30.00,North,353,15.0,-999.0,-999,-99.99,,,-99.99,,2013-10-25 21:43:00,
2013-10-25 17:54:00,50.0,-99.9,30.01,North,351,8.0,-999.0,-999,-99.99,,,-99.99,,2013-10-25 21:54:00,
2013-10-25 18:04:00,50.0,-99.9,30.01,North,351,8.0,-999.0,-999,-99.99,,,-99.99,,2013-10-25 22:04:00,
2013-10-25 18:13:00,50.0,-99.9,30.01,North,351,8.0,-999.0,-999,-99.99,,,-99.99,,2013-10-25 22:13:00,
2013-10-25 18:24:00,50.0,-99.9,30.02,NNW,337,2.0,-999.0,-999,-99.99,,,-99.99,,2013-10-25 22:24:00,
2013-10-25 18:34:00,50.0,-99.9,30.02,NNW,337,2.0,-999.0,-999,-99.99,,,-99.99,,2013-10-25 22:34:00,
2013-10-25 18:53:00,50.0,-99.9,30.04,NNW,329,11.0,-999.0,-999,-99.99,,,-99.99,,2013-10-25 22:53:00,
2013-10-25 19:03:00,50.0,-99.9,30.04,NNW,329,11.0,-999.0,-999,-99.99,,,-99.99,,2013-10-25 23:03:00,
2013-10-25 19:23:00,49.0,-99.9,30.05,NW,312,7.0,-999.0,-999,-99.99,,,-99.99,,2013-10-25 23:23:00,
2013-10-25 19:34:00,49.0,-99.9,30.05,NW,312,7.0,-999.0,-999,-99.99,,,-99.99,,2013-10-25 23:34:00,
2013-10-25 19:53:00,48.0,-99.9,30.07,NW,316,7.0,-999.0,-999,-99.99,,,-99.99,,2013-10-25 23:53:00,
2013-10-25 20:02:00,48.0,-99.9,30.07,NW,316,7.0,-999.0,-999,-99.99,,,-99.99,,2013-10-26 00:02:00,
2013-10-25 20:22:00,47.0,-99.9,30.07,NW,317,6.0,-999.0,-999,-99.99,,,-99.99,,2013-10-26 00:22:00,
2013-10-25 20:32:00,47.0,-99.9,30.07,NW,317,6.0,-999.0,-999,-99.99,,,-99.99,,2013-10-26 00:32:00,
2013-10-25 20:52:00,47.0,-99.9,30.08,NNW,340,7.0,-999.0,-999,-99.99,,,-99.99,,2013-10-26 00:52:00,
2013-10-25 21:01:00,47.0,-99.9,30.08,NNW,340,7.0,-999.0,-999,-99.99,,,-99.99,,2013-10-26 01:01:00,
2013-10-25 21:22:00,47.0,-99.9,30.10,NNW,344,13.0,-999.0,-999,-99.99,,,-99.99,,2013-10-26 01:22:00,
2013-10-25 21:32:00,47.0,-99.9,30.10,NNW,344,13.0,-999.0,-999,-99.99,,,-99.99,,2013-10-26 01:32:00,
2013-10-25 21:52:00,47.0,-99.9,30.11,NW,311,5.0,-999.0,-999,-99.99,,,-99.99,,2013-10-26 01:52:00,
2013-10-25 22:02:00,47.0,-99.9,30.11,NW,311,5.0,-999.0,-999,-99.99,,,-99.99,,2013-10-26 02:02:00,
2013-10-25 22:22:00,46.0,-99.9,30.12,North,5,11.0,-999.0,-999,-99.99,,,-99.99,,2013-10-26 02:22:00,
2013-10-25 22:32:00,46.0,-99.9,30.12,North,5,11.0,-999.0,-999,-99.99,,,-99.99,,2013-10-26 02:32:00,
2013-10-25 22:52:00,46.0,-99.9,30.13,NNW,336,10.0,-999.0,-999,-99.99,,,-99.99,,2013-10-26 02:52:00,
2013-10-25 23:02:00,46.0,-99.9,30.13,NNW,336,10.0,-999.0,-999,-99.99,,,-99.99,,2013-10-26 03:02:00,
2013-10-25 23:12:00,46.0,-99.9,30.13,NNW,336,10.0,-999.0,-999,-99.99,,,-99.99,,2013-10-26 03:12:00,
2013-10-25 23:22:00,45.0,-99.9,30.13,NNW,327,9.0,-999.0,-999,-99.99,,,-99.99,,2013-10-26 03:22:00,
2013-10-25 23:35:00,45.0,-99.9,30.13,NNW,327,9.0,-999.0,-999,-99.99,,,-99.99,,2013-10-26 03:35:00,
2013-10-25 23:54:00,45.0,-99.9,30.14,NW,311,7.0,-999.0,-999,-99.99,,,-99.99,,2013-10-26 03:54:00,